�������l�o���
Date,Time,MP-1(��Sv/h),MP-2(��Sv/h),MP-3(��Sv/h),MP-4(��Sv/h),MP-5(��Sv/h),MP-6(��Sv/h),MP-7(��Sv/h),MP-8(��Sv/h),����,����(m/s),���J
2023/04/08,00:00,0.558,0.797,0.489,1.013,0.702,0.323,0.574,0.542,�k��,3.6,�L
2023/04/08,00:10,0.557,0.794,0.488,1.012,0.700,0.323,0.573,0.540,�k��,6.7,�L
2023/04/08,00:20,0.558,0.796,0.487,1.010,0.702,0.322,0.573,0.539,�k��,5.6,�L
2023/04/08,00:30,0.556,0.797,0.487,1.010,0.702,0.322,0.573,0.539,�k��,6.2,�L
2023/04/08,00:40,0.559,0.797,0.487,1.007,0.701,0.322,0.571,0.539,�k��,4.3,�L
2023/04/08,00:50,0.554,0.790,0.487,1.005,0.700,0.321,0.571,0.540,�k��,7.9,�L
2023/04/08,01:00,0.555,0.791,0.485,1.002,0.700,0.322,0.570,0.539,�k��,5.5,�L
2023/04/08,01:10,0.556,0.792,0.485,1.004,0.699,0.321,0.571,0.539,�k�k��,3.9,�L
2023/04/08,01:20,0.556,0.792,0.486,1.003,0.699,0.321,0.571,0.541,�k�k��,3.8,�L
2023/04/08,01:30,0.556,0.794,0.486,1.003,0.701,0.322,0.571,0.540,�k�k��,4.0,�L
2023/04/08,01:40,0.556,0.792,0.486,1.003,0.700,0.322,0.570,0.540,�k�k��,3.0,�L
2023/04/08,01:50,0.555,0.793,0.486,1.004,0.698,0.321,0.571,0.541,�k�k��,3.8,�L
2023/04/08,02:00,0.555,0.794,0.484,0.998,0.697,0.322,0.571,0.541,�k�k��,3.2,�L
2023/04/08,02:10,0.553,0.793,0.484,0.999,0.700,0.320,0.570,0.541,�k,2.5,�L
2023/04/08,02:20,0.554,0.792,0.485,0.999,0.698,0.321,0.571,0.541,�k,1.5,�L
2023/04/08,02:30,0.555,0.791,0.485,0.997,0.698,0.321,0.569,0.539,�k�k��,1.9,�L
2023/04/08,02:40,0.554,0.793,0.485,0.999,0.700,0.320,0.568,0.541,�k�k��,1.9,�L
2023/04/08,02:50,0.553,0.794,0.484,0.997,0.699,0.321,0.570,0.540,�k�k��,2.6,�L
2023/04/08,03:00,0.555,0.793,0.486,0.997,0.699,0.322,0.569,0.539,�k�k��,2.8,�L
2023/04/08,03:10,0.554,0.794,0.485,0.999,0.698,0.321,0.570,0.541,�k,2.3,�L
2023/04/08,03:20,0.555,0.793,0.484,0.998,0.701,0.321,0.570,0.539,�k�k��,1.5,�L
2023/04/08,03:30,0.554,0.792,0.484,0.998,0.697,0.320,0.569,0.542,�k�k��,1.1,�L
2023/04/08,03:40,0.555,0.793,0.484,0.996,0.697,0.320,0.569,0.541,�k,1.1,�L
2023/04/08,03:50,0.554,0.793,0.484,0.998,0.699,0.320,0.570,0.541,�k�k��,1.2,�L
2023/04/08,04:00,0.554,0.794,0.485,0.997,0.698,0.320,0.569,0.542,�k�k��,2.3,�L
2023/04/08,04:10,0.555,0.793,0.483,0.995,0.697,0.320,0.569,0.542,�k,2.0,�L
2023/04/08,04:20,0.554,0.791,0.484,0.998,0.699,0.320,0.570,0.541,�k,3.1,�L
2023/04/08,04:30,0.554,0.793,0.484,0.998,0.697,0.320,0.571,0.541,�k,3.7,�L
2023/04/08,04:40,0.554,0.793,0.484,0.997,0.697,0.320,0.569,0.541,�k,3.7,�L
2023/04/08,04:50,0.554,0.793,0.483,0.996,0.699,0.320,0.569,0.541,�k,3.3,�L
2023/04/08,05:00,0.553,0.794,0.484,0.997,0.698,0.319,0.568,0.539,�k�k��,3.6,�L
2023/04/08,05:10,0.553,0.793,0.483,0.994,0.697,0.320,0.569,0.540,�k�k��,4.1,�L
2023/04/08,05:20,0.555,0.793,0.483,0.996,0.698,0.319,0.567,0.539,�k�k��,2.9,�L
2023/04/08,05:30,0.554,0.793,0.483,0.997,0.699,0.321,0.567,0.539,�k��,5.0,�L
2023/04/08,05:40,0.555,0.793,0.486,0.996,0.697,0.321,0.567,0.538,�k��,5.8,�L
2023/04/08,05:50,0.553,0.793,0.484,0.995,0.698,0.322,0.566,0.538,�k��,4.8,�L
2023/04/08,06:00,0.555,0.793,0.485,0.996,0.696,0.321,0.567,0.538,�k��,4.0,�L
2023/04/08,06:10,0.554,0.792,0.483,0.995,0.695,0.321,0.568,0.539,�k�k��,3.8,�L
2023/04/08,06:20,0.553,0.791,0.484,0.996,0.696,0.322,0.568,0.539,�k��,3.7,�L
2023/04/08,06:30,0.553,0.792,0.486,0.994,0.695,0.321,0.568,0.540,�k�k��,3.6,�L
2023/04/08,06:40,0.554,0.793,0.485,0.995,0.695,0.322,0.568,0.538,�k�k��,3.2,�L
2023/04/08,06:50,0.554,0.793,0.484,0.995,0.697,0.322,0.568,0.539,�k,3.1,�L
2023/04/08,07:00,0.555,0.793,0.487,0.992,0.696,0.324,0.568,0.539,�k,2.9,�L
2023/04/08,07:10,0.555,0.792,0.485,0.993,0.696,0.322,0.567,0.539,�k,3.2,�L
2023/04/08,07:20,0.555,0.793,0.487,0.994,0.697,0.321,0.567,0.539,�k,2.6,�L
2023/04/08,07:30,0.555,0.791,0.486,0.994,0.698,0.321,0.567,0.539,�k,2.0,�L
2023/04/08,07:40,0.555,0.792,0.485,0.993,0.695,0.321,0.568,0.539,�k�k��,1.5,�L
2023/04/08,07:50,0.554,0.793,0.485,0.993,0.697,0.320,0.568,0.539,�k��,0.8,�L
2023/04/08,08:00,0.555,0.791,0.484,0.993,0.697,0.320,0.567,0.541,�쐼,1.2,�L
2023/04/08,08:10,0.556,0.793,0.484,0.993,0.698,0.323,0.569,0.539,��,1.7,�L
2023/04/08,08:20,0.555,0.792,0.485,0.993,0.699,0.320,0.568,0.540,���k��,2.0,�L
2023/04/08,08:30,0.556,0.793,0.485,0.992,0.697,0.321,0.567,0.541,�k�k��,1.2,�L
2023/04/08,08:40,0.556,0.794,0.485,0.993,0.699,0.322,0.569,0.540,�k�k��,3.2,�L
2023/04/08,08:50,0.557,0.793,0.484,0.993,0.698,0.321,0.568,0.541,�k�k��,2.6,�L
2023/04/08,09:00,0.556,0.793,0.484,0.994,0.697,0.321,0.568,0.541,�k�k��,3.4,�L
2023/04/08,09:10,0.554,0.791,0.486,0.994,0.700,0.322,0.567,0.538,�k�k��,3.3,�L
2023/04/08,09:20,0.553,0.793,0.487,0.997,0.695,0.324,0.567,0.538,�k�k��,4.5,�L
2023/04/08,09:30,0.554,0.792,0.486,0.992,0.697,0.327,0.568,0.540,�k�k��,4.3,�L
2023/04/08,09:40,0.554,0.791,0.486,0.993,0.698,0.328,0.567,0.540,�k�k��,4.1,�L
2023/04/08,09:50,0.552,0.790,0.484,0.991,0.697,0.327,0.566,0.536,�k,2.0,�L
2023/04/08,10:00,0.555,0.793,0.484,0.992,0.697,0.327,0.568,0.538,�k�k��,2.6,�L
2023/04/08,10:10,0.553,0.792,0.486,0.992,0.696,0.327,0.568,0.537,�k�k��,3.5,�L
2023/04/08,10:20,0.555,0.793,0.486,0.990,0.697,0.328,0.566,0.538,�k,3.8,�L
2023/04/08,10:30,0.553,0.792,0.483,0.990,0.696,0.326,0.568,0.538,�k�k��,3.1,�L
2023/04/08,10:40,0.553,0.791,0.484,0.991,0.694,0.324,0.567,0.537,�k�k��,2.3,�L
2023/04/08,10:50,0.553,0.792,0.485,0.990,0.696,0.323,0.568,0.538,�k�k��,2.2,�L
2023/04/08,11:00,0.552,0.792,0.483,0.990,0.694,0.321,0.567,0.539,�k��,1.7,�L
2023/04/08,11:10,0.553,0.792,0.483,0.992,0.692,0.320,0.567,0.538,���k��,1.2,�L
2023/04/08,11:20,0.552,0.792,0.483,0.991,0.695,0.318,0.568,0.539,�k�k��,1.4,��
2023/04/08,11:30,0.550,0.792,0.482,0.991,0.693,0.319,0.567,0.538,���k��,1.7,��
2023/04/08,11:40,0.551,0.789,0.482,0.989,0.693,0.318,0.566,0.535,���k��,1.5,��
2023/04/08,11:50,0.552,0.788,0.482,0.989,0.693,0.319,0.567,0.535,���k��,2.0,�L
2023/04/08,12:00,0.550,0.791,0.480,0.992,0.692,0.318,0.565,0.537,���k��,2.0,�L
2023/04/08,12:10,0.550,0.791,0.480,0.990,0.691,0.318,0.567,0.537,��,2.3,�L
2023/04/08,12:20,0.550,0.791,0.481,0.991,0.692,0.318,0.568,0.538,��,1.5,�L
2023/04/08,12:30,0.552,0.791,0.483,0.990,0.695,0.318,0.566,0.537,���k��,1.9,�L
2023/04/08,12:40,0.552,0.791,0.483,0.991,0.693,0.318,0.565,0.538,���k��,1.7,�L
2023/04/08,12:50,0.553,0.792,0.484,0.991,0.696,0.318,0.567,0.535,���k��,0.9,�L
2023/04/08,13:00,0.552,0.797,0.483,0.994,0.693,0.318,0.568,0.539,���쓌,1.5,�L
2023/04/08,13:10,0.555,0.797,0.485,0.992,0.695,0.318,0.567,0.536,�쓌,2.0,�L
2023/04/08,13:20,0.556,0.797,0.485,0.992,0.696,0.319,0.567,0.538,�쓌,2.5,�L
2023/04/08,13:30,0.556,0.798,0.484,0.994,0.696,0.320,0.568,0.539,�쓌,1.8,�L
2023/04/08,13:40,0.557,0.795,0.484,0.994,0.696,0.321,0.566,0.539,��쓌,2.3,�L
2023/04/08,13:50,0.554,0.797,0.485,0.995,0.695,0.321,0.567,0.538,��쓌,2.9,�L
2023/04/08,14:00,0.556,0.796,0.487,0.993,0.695,0.322,0.569,0.538,��쓌,3.2,�L
2023/04/08,14:10,0.556,0.795,0.485,0.995,0.695,0.322,0.567,0.538,��쓌,4.4,�L
2023/04/08,14:20,0.557,0.797,0.486,0.994,0.697,0.322,0.566,0.539,��쓌,4.2,�L
2023/04/08,14:30,0.557,0.795,0.487,0.994,0.695,0.321,0.568,0.539,��,3.3,�L
2023/04/08,14:40,0.557,0.794,0.486,0.996,0.693,0.321,0.567,0.539,��,4.0,�L
2023/04/08,14:50,0.555,0.796,0.485,0.994,0.695,0.321,0.568,0.539,��,3.0,�L
2023/04/08,15:00,0.555,0.794,0.485,0.994,0.696,0.321,0.568,0.539,��쐼,0.9,�L
2023/04/08,15:10,0.554,0.792,0.484,0.992,0.697,0.319,0.568,0.539,��,2.2,��
2023/04/08,15:20,0.553,0.794,0.484,0.994,0.695,0.320,0.565,0.538,���k��,5.8,��
2023/04/08,15:30,0.553,0.792,0.483,0.991,0.697,0.320,0.566,0.540,���k��,11.0,�L
2023/04/08,15:40,0.554,0.796,0.483,0.993,0.696,0.319,0.565,0.540,���k��,9.5,��
2023/04/08,15:50,0.554,0.795,0.482,0.990,0.696,0.319,0.566,0.539,���k��,7.6,��
2023/04/08,16:00,0.553,0.795,0.484,0.993,0.695,0.320,0.567,0.539,���k��,6.6,�L
2023/04/08,16:10,0.551,0.793,0.482,0.992,0.694,0.319,0.567,0.539,��,6.7,�L
2023/04/08,16:20,0.554,0.793,0.482,0.991,0.695,0.319,0.568,0.539,���k��,5.7,��
2023/04/08,16:30,0.553,0.792,0.482,0.993,0.698,0.318,0.567,0.540,���k��,5.3,�L
2023/04/08,16:40,0.552,0.792,0.483,0.996,0.696,0.319,0.568,0.542,���k��,7.6,��
2023/04/08,16:50,0.553,0.793,0.481,0.994,0.695,0.319,0.569,0.540,���k��,7.5,��
2023/04/08,17:00,0.553,0.794,0.483,0.995,0.697,0.319,0.568,0.540,���k��,8.1,��
2023/04/08,17:10,0.552,0.794,0.482,0.993,0.697,0.318,0.568,0.541,���k��,7.5,��
2023/04/08,17:20,0.551,0.793,0.483,0.992,0.696,0.319,0.569,0.542,���k��,8.5,�L
2023/04/08,17:30,0.552,0.795,0.482,0.995,0.697,0.317,0.570,0.540,��,8.9,�L
2023/04/08,17:40,0.552,0.792,0.481,0.994,0.697,0.319,0.567,0.540,���k��,7.1,�L
2023/04/08,17:50,0.552,0.793,0.482,0.994,0.696,0.318,0.568,0.541,��,8.4,��
2023/04/08,18:00,0.554,0.794,0.484,0.994,0.699,0.318,0.569,0.542,���k��,8.8,��
2023/04/08,18:10,0.552,0.792,0.482,0.992,0.697,0.317,0.568,0.542,���k��,10.5,��
2023/04/08,18:20,0.553,0.795,0.482,0.996,0.696,0.318,0.569,0.541,���k��,8.2,��
2023/04/08,18:30,0.554,0.794,0.483,0.997,0.696,0.318,0.568,0.541,���k��,8.2,��
2023/04/08,18:40,0.553,0.792,0.484,0.998,0.698,0.318,0.568,0.541,�k��,8.6,��
2023/04/08,18:50,0.551,0.794,0.482,0.995,0.696,0.317,0.569,0.540,���k��,7.5,��
2023/04/08,19:00,0.554,0.792,0.483,0.997,0.698,0.319,0.569,0.542,���k��,7.3,��
2023/04/08,19:10,0.552,0.793,0.483,0.997,0.696,0.318,0.568,0.542,���k��,6.9,��
2023/04/08,19:20,0.552,0.794,0.481,0.996,0.698,0.319,0.569,0.542,���k��,5.0,��
2023/04/08,19:30,0.552,0.795,0.483,0.998,0.699,0.319,0.569,0.542,�k�k��,3.3,��
2023/04/08,19:40,0.552,0.793,0.483,0.996,0.697,0.317,0.570,0.542,�k�k��,5.3,��
2023/04/08,19:50,0.552,0.794,0.483,0.995,0.698,0.317,0.570,0.541,�k��,5.7,��
2023/04/08,20:00,0.551,0.796,0.483,0.997,0.697,0.317,0.570,0.542,�k��,5.1,��
2023/04/08,20:10,0.552,0.795,0.482,0.998,0.697,0.318,0.570,0.543,�k��,5.9,��
2023/04/08,20:20,0.552,0.795,0.482,0.997,0.697,0.317,0.570,0.543,�k��,6.4,��
2023/04/08,20:30,0.552,0.795,0.481,0.997,0.699,0.318,0.570,0.541,�k��,5.8,��
2023/04/08,20:40,0.553,0.793,0.483,0.997,0.699,0.319,0.569,0.542,�k��,6.0,��
2023/04/08,20:50,0.552,0.795,0.482,0.997,0.697,0.317,0.570,0.542,�k��,5.4,��
2023/04/08,21:00,0.551,0.795,0.484,0.996,0.696,0.318,0.570,0.540,���k��,4.6,��
2023/04/08,21:10,0.553,0.795,0.482,0.999,0.698,0.317,0.569,0.540,�k��,4.7,��
2023/04/08,21:20,0.552,0.794,0.482,0.998,0.699,0.318,0.570,0.540,�k��,5.2,��
2023/04/08,21:30,0.553,0.796,0.483,0.999,0.698,0.318,0.571,0.540,���k��,2.9,��
2023/04/08,21:40,0.550,0.793,0.482,0.999,0.699,0.317,0.570,0.542,�k��,3.3,��
2023/04/08,21:50,0.552,0.794,0.483,0.999,0.698,0.318,0.571,0.540,��,2.5,��
2023/04/08,22:00,0.552,0.795,0.482,0.998,0.698,0.318,0.571,0.540,���k��,2.3,��
2023/04/08,22:10,0.552,0.795,0.482,0.997,0.697,0.318,0.571,0.541,�k��,3.7,��
2023/04/08,22:20,0.552,0.794,0.482,0.999,0.697,0.317,0.570,0.541,�k��,2.0,��
2023/04/08,22:30,0.552,0.792,0.481,0.999,0.698,0.317,0.571,0.540,�k�k��,3.8,��
2023/04/08,22:40,0.552,0.793,0.480,0.996,0.698,0.318,0.572,0.541,�k��,3.1,��
2023/04/08,22:50,0.551,0.795,0.481,0.998,0.699,0.318,0.570,0.541,���k��,3.3,��
2023/04/08,23:00,0.552,0.795,0.483,1.000,0.697,0.317,0.571,0.541,���k��,3.4,��
2023/04/08,23:10,0.553,0.795,0.483,0.997,0.698,0.317,0.571,0.542,��,3.0,��
2023/04/08,23:20,0.552,0.795,0.483,0.998,0.700,0.318,0.571,0.540,��,2.2,��
2023/04/08,23:30,0.551,0.795,0.484,0.999,0.699,0.317,0.571,0.540,�쐼,2.6,��
2023/04/08,23:40,0.551,0.795,0.482,0.997,0.700,0.317,0.570,0.541,�쐼,2.5,��
2023/04/08,23:50,0.552,0.794,0.482,0.998,0.698,0.317,0.571,0.539,��,4.3,��
